Regional Weather Roundup
Issued by NWS Sterling, VA

Home | Current Version | Previous Version | Text Only | Print | Product List | Glossary Off
Versions: 1 2 3 4 5 6 7 8 9 10 11 12 13 14 15 16 17 18 19 20 21 22 23 24 25 26 27 28 29 30 31 32 33 34 35 36 37 38 39 40 41 42 43 44 45 46 47 48 49 50

000
ASUS41 KLWX 290910
RWRLWX

REGIONAL WEATHER ROUNDUP
NATIONAL WEATHER SERVICE BALTIMORE MD/WASHINGTON DC
500 AM EDT FRI MAY 29 2015

Note: "FAIR" indicates few or no clouds below 12,000 feet
with no significant weather and/or obstructions to visibility.
 TC=TEMPERATURE CELSIUS

 * =Non NWS site. Station does not report precipitation (e.g. rain,
    snow, etc.), thunder, or fog.

DCZ001-MDZ009-015-VAZ040>042-051-053>054-291000-
WASHINGTON METRO

CITY           SKY/WX    TMP DP  RH WIND       PRES   REMARKS
WASHINGTON NAT MOCLDY    75  69  81 E8        30.21R
DULLES         PTCLDY    70  67  90 E7        30.21R
ANDREWS AFB    MOCLDY    70  70  99 E6        30.21R
FT BELVOIR     CLOUDY    71  69  94 CALM      30.20R
QUANTICO       MOCLDY    71  67  87 CALM      30.20R
COLLEGE PARK*  CLEAR     72  70  94 CALM      30.21R
LEESBURG*      PTCLDY    68  64  88 N7        30.23R
MANASSAS*      CLEAR     66  66 100 CALM      30.20S
GAITHERSBURG*  CLEAR     70  59  68 E5        30.26S

$$

MDZ006>007-011-014-291000-
BALTIMORE METRO

CITY           SKY/WX    TMP DP  RH WIND       PRES   REMARKS
BWI AIRPORT    PTCLDY    71  59  65 E9        30.22R
MD SCIENCE CTR   N/A     73  55  53 MISG      30.23R
MARTIN STATE   PTCLDY    72  59  64 NE5       30.24R
ANNAPOLIS      MOCLDY    72  67  84 NE5       30.21R
FORT MEADE*    CLEAR     68  61  77 E7        30.24S

$$

MDZ012-015-019>023-291000-
MARYLAND EASTERN SHORE

CITY           SKY/WX    TMP DP  RH WIND       PRES   REMARKS
OCEAN CITY     PTCLDY    65  63  93 CALM      30.22R
SALISBURY      CLEAR     63  61  93 CALM      30.21S
BAY BRIDGE AP*   N/A    N/A N/A N/A CALM      30.22S
CAMBRIDGE*     MOCLDY    70  64  83 NE3       30.20S
EASTON*        MOCLDY    73  73 100 CALM      30.25S

$$

MDZ017>025-291000-
SOUTHERN MARYLAND

CITY           SKY/WX    TMP DP  RH WIND       PRES   REMARKS
PATUXENT RIVER PTCLDY    70  68  93 SE3       30.20R
ST INIGOES     CLEAR     71  67  87 CALM      30.19R
LEONARDTOWN*   MOCLDY    66  64  94 CALM      30.22R

$$

MDZ003>005-291000-
NORTH CENTRAL MARYLAND

CITY           SKY/WX    TMP DP  RH WIND       PRES   REMARKS
FREDERICK*     PTCLDY    64  59  82 N5        30.27R
HAGERSTOWN APT CLEAR     66  55  67 N6        30.24R
WESTMINSTER*   PTCLDY    68  52  56 E7        30.26R

$$

MDZ501>502-291000-
WESTERN MARYLAND

CITY           SKY/WX    TMP DP  RH WIND       PRES   REMARKS
OAKLAND*       CLEAR     59  59 100 E8        30.29S
CUMBERLAND*    MOCLDY    66  59  77 CALM      30.28R

$$

VAZ025>031-291000-
SHENANDOAH VALLEY

CITY           SKY/WX    TMP DP  RH WIND       PRES   REMARKS
WINCHESTER*    CLEAR     64  55  72 CALM      30.23R
FRONT ROYAL*   FAIR      63  63 100 CALM      30.21S
LURAY*         FOG       63  63 100 CALM      30.22S VSB 1/4
NEW MARKET*    FAIR      60  60  99 CALM      30.21S
STAUNTON*      FOG       64  62  94 CALM      30.25S VSB 1
WAYNESBORO*    FAIR      61  61  99 CALM      30.23F

$$

WVZ021-048>050-054>055-291000-
EASTERN WEST VIRGINIA PANHANDLE

CITY           SKY/WX    TMP DP  RH WIND       PRES   REMARKS
MARTINSBURG    CLEAR     68  55  63 N7        30.23S
PETERSBURG*    FOG       61  59  91 CALM      30.25R VSB 1/2

$$

VAZ036>039-050-291000-
CENTRAL FOOTHILLS

CITY           SKY/WX    TMP DP  RH WIND       PRES   REMARKS
CHARLOTTESVILL CLEAR     65  63  93 CALM      30.20S
CULPEPER*      PTCLDY    65  65  99 CALM      30.21R
ORANGE*        CLEAR     64  64 100 CALM      30.21S FOG
GORDONSVILLE*  FAIR      64  63  99 CALM      30.19S FOG
WARRENTON*       N/A     65  65 100 CALM      30.20R FOG

$$

VAZ055>057-291000-
NORTH AND CENTRAL PIEDMONT

CITY           SKY/WX    TMP DP  RH WIND       PRES   REMARKS
FREDERICKSBRG* CLEAR     69  69 100 CALM      30.18S
STAFFORD*      PTCLDY    65  64  97 CALM      30.23S FOG

$$

NCZ024-NYZ072-PAZ021-071-VAZ022-071-291000-
OTHER REGIONAL OBSERVATIONS

CITY           SKY/WX    TMP DP  RH WIND       PRES   REMARKS
NEW YORK CITY  CLEAR     66  53  63 VRB6      30.29R
PHILADELPHIA   PTCLDY    68  55  63 NE8       30.26R
PITTSBURGH     PTCLDY    62  54  74 E3        30.21S
ROANOKE        PTCLDY    66  63  90 CALM      30.22S
RICHMOND       PTCLDY    69  65  86 S3        30.19S
RALEIGH        PTCLDY    69  65  86 S3        30.20S

$$

ANZ530>537-291000-
MARINE OBSERVATIONS

STATION/POSITION TIME  TEMP    WIND        PRES
                       AIR SEA DIR/SP/G
                 (UTC) (F)     (DEG/KT/KT) (MB)
THOMAS PT LIGHT  0900   71 71   50/ 10/ 11 1023.4F
BALT KEY BRIDGE  0800   73      50/  9/ 11 1022.8F
COVE POINT       0800   70     150/  5/  7 1023.1F
LEWISETTA        0800   72 75              1021.9F
SOLOMONS ISLAND  0800      71                N/A
PINEY POINT      0800          200/  5/  6   N/A

$$



USA.gov is the U.S. government's official web portal to all federal, state and local government web resources and services.